Location: Boiro
(42.6475°N, 8.8834°W)
Time: 03:25:21
(UTC+01:00)

Vanguard 3 - Pass Details

Date: 09 December 2021
Orbit: 508 x 3260 km, 33.3° (Epoch: 19 January)

Event Time Altitude Azimuth Distance (km) Brightness Sun altitude
Exits shadow 03:41:23 48° 136° (SE) 3,904 10.3 -56.0°
Drops below altitude 10° 03:56:44 10° 89° (E) 5,875 11.9 -53.4°
Sets 04:01:02 0° 84° (E) 6,665 12.4 -52.6°
